Weather History for Gillette, WY

Change the Weather History Date:

Sunday, September 1, 2013

  Actual Average Record
Temperature  
Mean Temperature 67 °F 65 °F  
Max Temperature 88 °F 81 °F 98 °F (1983)
Min Temperature 45 °F 49 °F 30 °F (1930)
Degree Days  
Heating Degree Days 0 3  
Month to date heating degree days 0 3  
Since 1 July heating degree days 0 60  
Cooling Degree Days 2 3  
Month to date cooling degree days 2 3  
Year to date cooling degree days 524 463  
Growing Degree Days 16 (Base 50)    
Moisture  
Dew Point 40 °F    
Average Humidity 44    
Maximum Humidity 71    
Minimum Humidity 17    
Precipitation  
Precipitation 0.00 in 0.04 in 1.20 in (1986)
Month to date precipitation 0.00 0.04  
Year to date precipitation 13.43 10.52  
Sea Level Pressure  
Sea Level Pressure 30.01 in    
Wind  
Wind Speed 7 mph (SSE)    
Max Wind Speed 23 mph    
Max Gust Speed 28 mph    
Visibility 10 miles    
Events      
T = Trace of Precipitation, MM = Missing Value Source: NWS Daily Summary

Daily Weather History Graph

Daily Weather History Graph

Search for Another Location

Airport:

Trip Planner

Search our weather history database for the weather conditions in past years. The results will help you decide how hot, cold, wet, or windy it might be!

Date:

Astronomy

Sep. 01, 2013 Rise Set
Actual Time 6:25 AM MDT 7:37 PM MDT
Civil Twilight 5:55 AM MDT 8:07 PM MDT
Nautical Twilight 5:19 AM MDT 8:43 PM MDT
Astronomical Twilight 4:41 AM MDT 9:21 PM MDT
Moon 2:44 AM MDT (9/1) 5:21 PM MDT (9/1)
Length of Visible Light 14h 12m
Length of Day
13h 12m
Waning Crescent, 13% of the Moon is Illuminated
Sep 1
Waning Crescent
Sep 5
New
Sep 12
First Quarter
Sep 19
Full
Sep 26
Last Quarter

Hourly Weather History & Observations

Time (MDT) Temp. Dew Point Humidity Pressure Visibility Wind Dir Wind Speed Gust Speed Precip Events Conditions
12:53 AM 51.1 °F 39.0 °F 63% 30.07 in 10.0 mi Calm Calm - N/A   Clear
1:53 AM 53.1 °F 39.0 °F 59% 30.06 in 10.0 mi South 4.6 mph - N/A   Clear
2:53 AM 54.0 °F 39.9 °F 59% 30.06 in 10.0 mi SE 3.5 mph - N/A   Clear
3:53 AM 48.0 °F 37.9 °F 68% 30.07 in 10.0 mi Calm Calm - N/A   Clear
4:53 AM 46.9 °F 37.9 °F 71% 30.07 in 10.0 mi Calm Calm - N/A   Clear
5:53 AM 46.9 °F 37.9 °F 71% 30.08 in 10.0 mi Calm Calm - N/A   Clear
6:53 AM 46.9 °F 37.9 °F 71% 30.09 in 10.0 mi Calm Calm - N/A   Clear
7:53 AM 59.0 °F 41.0 °F 51% 30.08 in 10.0 mi NNE 3.5 mph - N/A   Clear
8:53 AM 68.0 °F 43.0 °F 40% 30.08 in 10.0 mi Calm Calm - N/A   Clear
9:53 AM 75.0 °F 44.1 °F 33% 30.06 in 10.0 mi South 10.4 mph - N/A   Clear
10:53 AM 78.1 °F 43.0 °F 29% 30.05 in 10.0 mi SSE 10.4 mph - N/A   Clear
11:53 AM 81.0 °F 43.0 °F 26% 30.04 in 10.0 mi Calm Calm - N/A   Clear
12:53 PM 82.9 °F 42.1 °F 24% 30.02 in 10.0 mi Variable 5.8 mph - N/A   Clear
1:53 PM 84.9 °F 41.0 °F 21% 29.99 in 10.0 mi SSW 6.9 mph 16.1 mph N/A   Clear
2:53 PM 84.9 °F 39.0 °F 20% 29.96 in 10.0 mi Calm Calm - N/A   Clear
3:53 PM 87.1 °F 37.9 °F 18% 29.95 in 10.0 mi East 6.9 mph - N/A   Clear
4:53 PM 87.1 °F 39.9 °F 19% 29.96 in 10.0 mi SSE 6.9 mph - N/A   Clear
5:53 PM 86.0 °F 39.9 °F 20% 29.94 in 10.0 mi SE 11.5 mph - N/A   Clear
6:53 PM 82.9 °F 41.0 °F 23% 29.95 in 10.0 mi ESE 8.1 mph - N/A   Clear
7:53 PM 75.9 °F 42.1 °F 30% 29.95 in 10.0 mi SE 9.2 mph - N/A   Clear
8:53 PM 71.1 °F 41.0 °F 34% 29.95 in 10.0 mi South 6.9 mph - N/A   Clear
9:53 PM 72.0 °F 39.9 °F 31% 29.94 in 10.0 mi SSE 10.4 mph - N/A   Clear
10:53 PM 72.0 °F 41.0 °F 33% 29.94 in 10.0 mi SSE 16.1 mph - N/A   Clear
11:53 PM 70.0 °F 43.0 °F 38% 29.94 in 10.0 mi South 18.4 mph - N/A   Clear